Regional Weather Roundup
Issued by NWS Grand Forks, ND

Home | Current Version | Previous Version | Graphics & Text | Print | Product List | Glossary On
Versions: 1 2 3 4 5 6 7 8 9 10 11 12 13 14 15 16 17 18 19 20 21 22 23 24 25 26 27 28 29 30 31 32 33 34 35 36 37 38 39 40 41 42 43 44 45 46 47 48 49 50
000
ASUS43 KFGF 102310
RWRFGF
PRAIRIE TO PINES  WEATHER ROUNDUP
NATIONAL WEATHER SERVICE EASTERN NORTH DAKOTA/GRAND FORKS ND
600 PM CDT THU JUL 10 2014

 **SATELLITE DATA USED TO AUGMENT SKY COVER AT AUTOMATED STATIONS**
 *****  WEATHER ACROSS EASTERN NORTH DAKOTA  *****

CITY           SKY/WX    TMP DP  RH WIND       PRES   REMARKS
GRAND FORKS    CLOUDY    80  62  54 SE12G22   29.83F
GRAND FRKS AFB CLOUDY    79  63  58 SE15      29.84F
GRAND FRKS NWS   N/A     77 N/A N/A SE20        N/A
DEVILS LAKE    MOSUNNY   79  63  57 S16G22    29.81S
FARGO          LGT RAIN  79  63  57 S10G22    29.84F
WAHPETON ARPT  CLOUDY    79  59  50 S10       29.86F
$$

 ***** WEATHER ACROSS CENTRAL AND WESTERN NORTH DAKOTA  *****

CITY           SKY/WX    TMP DP  RH WIND       PRES   REMARKS
BISMARCK       SUNNY     78  66  66 S9        29.80F
MINOT          SUNNY     81  64  56 SE14      29.76S
JAMESTOWN      CLOUDY    75  65  70 S8        29.83F
MINOT AFB      SUNNY     81  67  63 S13       29.75F
GARRISON         N/A     80  67  64 S10       29.79S
WILLISTON      MOSUNNY   91  61  36 S8        29.71S HX  91
DICKINSON      SUNNY     82  68  62 SE12      29.78F
HETTINGER      SUNNY     83  65  54 S8        29.82F
$$

 *****  OTHER AIRPORT OBSERVATIONS IN OUR AREA  *****

CITY           SKY/WX    TMP DP  RH WIND       PRES   REMARKS
WALHALLA       NOT AVBL
GRAFTON AIRPOR FAIR      77  61  57 S13       29.82F
VALLEY CITY AR MOCLDY    73  70  88 S8        29.85S
CANDO          FAIR      77  64  65 S17G24    29.81S
CAVALIER APRT  FAIR      81  63  54 S12G17    29.81S
GWINNER        PTCLDY    75  72  88 SE6       29.86F
SHEYENNE NWR     N/A     77  67  70 S6        29.95S
ROLLA          FAIR      77  63  61 S18G28    29.80F
 ***** THE ABOVE OBSERVATIONS ARE NON NWS ARE NOT QUALITY
       CONTROLLED AND MAY MIS-REPORT RAIN FOR SNOW...
$$

  *****  WEATHER ACROSS NORTHERN MINNESOTA  *****

CITY           SKY/WX    TMP DP  RH WIND       PRES   REMARKS
FLAG ISLAND    PTSUNNY   73  63  68 S10       29.88S
WARROAD        PTSUNNY   77  61  57 S8        29.89F
ROSEAU         CLOUDY    75  63  64 S10       29.88F
HALLOCK        CLOUDY    79  61  53 S14       29.83F
THF RVR FALLS  CLOUDY    75  61  60 SE10      29.88S
BAUDETTE       MOSUNNY   75  56  51 S10       29.92F
WASKISH        NOT AVBL
CROOKSTON      CLOUDY    79  63  57 SE10      29.86F
$$
  *****  WEATHER ACROSS CENTRAL AND WEST MINNESOTA  *****

CITY           SKY/WX    TMP DP  RH WIND       PRES   REMARKS
FOSSTON        CLOUDY    79  63  57 SE8       29.91S
BEMIDJI        CLOUDY    79  60  52 SE9       29.92F
PARK RAPIDS    PTSUNNY   78  61  55 S12       29.92F
ELBOW LAKE     NOT AVBL
WADENA         CLOUDY    79  63  57 SE9       29.92F
DETROIT LAKES  CLOUDY    77  61  57 S10       29.92S
MOORHEAD       NOT AVBL
FERGUS FALLS   CLOUDY    79  61  53 S12       29.88S
MORRIS MN      CLOUDY    77  66  69 S6        29.89S
STAPLES        PTSUNNY   79  63  57 SE6       29.93F
$$
  *****  WEATHER ELSEWHERE ACROSS MINNESOTA  *****

CITY           SKY/WX    TMP DP  RH WIND       PRES   REMARKS
DULUTH         MOSUNNY   75  57  53 SE7       30.00S
INTRNTL FALLS  SUNNY     77  54  44 S8        29.93S
ELY            SUNNY     79  50  36 S12       29.98S
CLOQUET        MOSUNNY   79  55  44 S7        30.00R
WHEATON        CLOUDY    77  63  61 SE10      29.88F
BRAINERD       CLOUDY    83  61  47 SE7       29.95F HAZE
HIBBING        SUNNY     80  54  40 SW8       29.97S
ALEXANDRIA     CLOUDY    79  63  57 S10       29.94S
SAINT CLOUD    CLOUDY    82  62  50 S7        29.95F
MINNEAPOLIS    CLOUDY    84  58  40 SW14      29.98F
$$

  *****  WEATHER ACROSS SOUTH DAKOTA  *****

CITY           SKY/WX    TMP DP  RH WIND       PRES   REMARKS
SIOUX FALLS    CLOUDY    82  64  54 SE18      29.91F
BROOKINGS      NOT AVBL
WATERTOWN      CLOUDY    76  65  68 S16G29    29.87F
HURON          CLOUDY    78  69  73 SE7       29.81F
SISSETON         N/A     78  64  61 S15       29.85F
ABERDEEN       LGT RAIN  75  70  84 SE9       29.82F
MITCHELL       PTSUNNY   83  66  56 S17G24    29.86R
PIERRE         CLOUDY    83  67  58 S7        29.78F
MOBRIDGE       SUNNY     79  66  64 S10       29.79R
RAPID CITY     CLOUDY    82  61  48 W5        29.88F
$$

  *****  SOME WEATHER IN NEARBY STATES *****

CITY           SKY/WX    TMP DP  RH WIND       PRES   REMARKS
GLASGOW MT     MOSUNNY   89  53  29 N12G25    29.78R
GREAT FALLS MT SUNNY     90  36  14 W9G21     29.81F
CHEYENNE WY    PTSUNNY   83  43  24 SW16      30.05F
SCOTTSBLUFF NE CLOUDY    83  58  42 SW17      29.90R
OMAHA NE       PTSUNNY   84  65  52 S17G30    29.97F
DES MOINES IA  MOSUNNY   83  57  41 S15G23    30.04F
DAVENPORT IA   CLOUDY    78  59  51 S8        30.10F
CHICAGO IL     MOSUNNY   75  52  44 E10       30.14S
EAU CLAIRE WI  MOSUNNY   80  64  58 S13       30.02S
LA CROSSE WI   SUNNY     82  62  50 S13       30.04S HAZE
$$

  *****  SOME NATIONAL WEATHER *****

CITY           SKY/WX    TMP DP  RH WIND       PRES   REMARKS
LA GUARDIA NY  PTSUNNY   80  60  50 VRB7      30.08S
RALEIGH NC     TSTM      74  68  81 SE9       30.08R
ATLANTA GA     PTSUNNY   85  68  56 SW8       30.02F
NEW ORLEANS LA CLOUDY    83  74  74 SW7       30.04F
OKLAHOMA CITY  PTSUNNY   88  73  61 E13       29.93F HX  95
ALBUQUERQUE NM PTSUNNY   88  47  24 CALM      30.04F
SALT LAKE CITY PTSUNNY   92  50  23 N7        29.90F
LOS ANGELES CA MOSUNNY   74  61  63 W14       29.92S
BOISE ID       SUNNY     98  37  12 N12       29.83F HX  93
SEATTLE WA     MOSUNNY   82  51  34 NW7       29.92F
$$

*** WEATHER ACROSS MANITOBA...SASKATCHEWAN AND ONTARIO ***
                ***ONTARIO***

CITY           SKY/WX    TMP DP  RH WIND       PRES   REMARKS
GERALDTON      NOT AVBL
THUNDER BAY    NOT AVBL
SIOUX LOOKOUT  NOT AVBL
TORONTO        NOT AVBL
BIG TROUT LK   NOT AVBL
PICKLE LAKE    NOT AVBL
DRYDEN         NOT AVBL
KENORA         NOT AVBL
$$
                *** MANITOBA***

CITY           SKY/WX    TMP DP  RH WIND       PRES   REMARKS
BRANDON        NOT AVBL
DAUPHIN        MOSUNNY   81  64  57 SW10      29.63S
ISLAND LAKE    NOT AVBL
PILOT MOUND    NOT AVBL
THE PAS        NOT AVBL
THOMPSON       NOT AVBL
WINNIPEG       NOT AVBL
$$
                ***SASKATCHEWAN***

CITY           SKY/WX    TMP DP  RH WIND       PRES   REMARKS
ESTEVAN        LGT RAIN N/A N/A N/A S2          N/A
KINDERSLEY     NOT AVBL
LLOYDMINSTER   NOT AVBL
PRINCE ALBERT  NOT AVBL
REGINA         NOT AVBL
YORKTON        NOT AVBL
N. BATTLEFORD  NOT AVBL
LA RONGE       NOT AVBL
SASKATOON      NOT AVBL
SWIFT CURRENT  NOT AVBL
$$
NOTE: THESE ARE AUTOMATED STATIONS WITH LIMITED QUALITY CONTROL
      "FAIR" INDICATES FEW OR NO CLOUDS BELOW 12,000 FEET WITH NO
      SIGNIFICANT WEATHER AND/OR OBSTRUCTIONS TO VISIBILITY.
      SKY/WX - SKY CONDITION AND SIGNIFICANT WEATHER.
      TMP - AIR TEMPERATURE.    DP   - DEWPOINT TEMPERATURE.
      RH  - RELATIVE HUMIDITY.  PRES - PRESSURE.
      HX  - HEAT INDEX.         WCI  - WIND CHILL INDEX.
$


USA.gov is the U.S. government's official web portal to all federal, state and local government web resources and services.